EW8926 Weather Reports


time (UTC)temp
C
wind
direction
speed
KPH
gust
KPH
rain 1hr
cm
rain 24hr
cm
rain mn
cm
humidity
%
barometer
mb
20260507165604 18 133 4.8 12.9 0.00 0.00 0.00 64 1013.4
20260507165104 18 129 6.4 11.3 0.00 0.00 0.00 62 1013.4
20260507164603 18 139 8.0 9.7 0.00 0.00 0.00 63 1013.4
20260507164107 19 135 8.0 12.9 0.00 0.00 0.00 62 1013.3
20260507163604 19 141 8.0 12.9 0.00 0.00 0.00 61 1013.3
20260507163104 19 158 8.0 14.5 0.00 0.00 0.00 61 1013.3
20260507162107 19 138 8.0 12.9 0.00 0.00 0.00 61 1013.4
20260507161605 20 142 8.0 12.9 0.00 0.00 0.00 61 1013.4
20260507161104 20 139 8.0 12.9 0.00 0.00 0.00 62 1013.4
20260507160605 20 140 8.0 12.9 0.00 0.00 0.00 61 1013.4
20260507160104 20 130 8.0 16.1 0.00 0.00 0.00 62 1013.4
20260507155605 20 131 9.7 16.1 0.00 0.00 0.00 63 1013.3
20260507155105 20 143 9.7 20.9 0.00 0.00 0.00 63 1013.3
20260507154104 20 149 8.0 20.9 0.00 0.00 0.00 61 1013.3
20260507153604 20 132 8.0 19.3 0.00 0.00 0.00 61 1013.3
20260507153104 21 147 4.8 14.5 0.00 0.00 0.00 59 1013.3
20260507152604 21 151 4.8 11.3 0.00 0.00 0.00 58 1013.3
20260507152104 21 137 8.0 12.9 0.00 0.00 0.00 57 1013.3
20260507151603 20 135 8.0 12.9 0.00 0.00 0.00 58 1013.3
20260507151104 20 135 8.0 14.5 0.00 0.00 0.00 58 1013.3
20260507150604 20 135 9.7 14.5 0.00 0.00 0.00 59 1013.3
20260507150104 20 135 9.7 16.1 0.00 0.00 0.00 61 1013.3
20260507145607 20 124 11.3 19.3 0.00 0.00 0.00 62 1013.4
20260507145104 20 125 9.7 20.9 0.00 0.00 0.00 60 1013.4
20260507144103 21 135 8.0 20.9 0.00 0.00 0.00 59 1013.4
20260507143604 21 137 8.0 14.5 0.00 0.00 0.00 56 1013.4
20260507143104 21 152 8.0 12.9 0.00 0.00 0.00 51 1013.4
20260507142606 21 120 8.0 12.9 0.00 0.00 0.00 50 1013.5
20260507142104 21 129 4.8 12.9 0.00 0.00 0.00 50 1013.5
20260507141604 21 129 3.2 16.1 0.00 0.00 0.00 50 1013.5
20260507141103 21 134 4.8 12.9 0.00 0.00 0.00 51 1013.6
20260507140104 21 126 4.8 9.7 0.00 0.00 0.00 52 1013.7
20260507135604 21 113 4.8 14.5 0.00 0.00 0.00 54 1013.7
20260507135104 21 127 6.4 8.0 0.00 0.00 0.00 53 1013.7
20260507134603 21 132 8.0 9.7 0.00 0.00 0.00 53 1013.7
20260507134104 21 133 4.8 11.3 0.00 0.00 0.00 55 1013.8
20260507133105 21 129 4.8 9.7 0.00 0.00 0.00 54 1013.9
20260507132603 21 153 3.2 14.5 0.00 0.00 0.00 56 1014.0
20260507131106 21 302 3.2 16.1 0.00 0.00 0.00 53 1014.0
20260507130605 21 110 3.2 8.0 0.00 0.00 0.00 51 1014.0
20260507125607 21 305 3.2 8.0 0.00 0.00 0.00 53 1014.0
20260507125104 21 139 3.2 8.0 0.00 0.00 0.00 53 1014.0
20260507124604 21 116 3.2 9.7 0.00 0.00 0.00 54 1014.0
20260507124103 21 111 3.2 8.0 0.00 0.00 0.00 57 1014.1
20260507123604 20 227 3.2 8.0 0.00 0.00 0.00 55 1014.2
20260507123105 20 124 3.2 8.0 0.00 0.00 0.00 57 1014.2
20260507122603 20 126 3.2 9.7 0.00 0.00 0.00 54 1014.2
20260507121604 21 127 3.2 9.7 0.00 0.00 0.00 56 1014.2
20260507121104 21 163 3.2 8.0 0.00 0.00 0.00 52 1014.2
20260507120104 21 20 3.2 8.0 0.00 0.00 0.00 53 1014.2
20260507115604 21 357 3.2 9.7 0.00 0.00 0.00 52 1014.4
20260507115104 21 5 3.2 9.7 0.00 0.00 0.00 52 1014.5
20260507114604 21 260 3.2 8.0 0.00 0.00 0.00 51 1014.5
20260507113604 21 339 3.2 9.7 0.00 0.00 0.00 56 1014.6
20260507113104 21 345 3.2 9.7 0.00 0.00 0.00 56 1014.6
20260507112606 21 122 3.2 8.0 0.00 0.00 0.00 56 1014.7
20260507112104 20 166 3.2 8.0 0.00 0.00 0.00 55 1014.7
20260507111605 20 177 3.2 8.0 0.00 0.00 0.00 56 1014.7
20260507111105 20 277 3.2 9.7 0.00 0.00 0.00 57 1014.8
20260507110604 20 123 3.2 11.3 0.00 0.00 0.00 56 1014.8
20260507110104 20 206 3.2 8.0 0.00 0.00 0.00 58 1014.8
20260507105603 20 157 3.2 8.0 0.00 0.00 0.00 58 1014.8
20260507105110 20 156 3.2 8.0 0.00 0.00 0.00 63 1014.8
20260507104604 19 180 3.2 8.0 0.00 0.00 0.00 64 1014.8
20260507104104 18 146 3.2 8.0 0.00 0.00 0.00 66 1014.9
20260507103104 18 284 3.2 8.0 0.00 0.00 0.00 69 1015.0
20260507102103 18 140 3.2 8.0 0.00 0.00 0.00 70 1015.1
20260507101604 18 293 3.2 9.7 0.00 0.00 0.00 73 1015.1
20260507101104 18 315 3.2 8.0 0.00 0.00 0.00 73 1015.1
20260507100604 17 307 3.2 4.8 0.00 0.00 0.00 72 1015.1
20260507100103 18 308 3.2 8.0 0.00 0.00 0.00 72 1015.1
20260507095603 17 340 3.2 8.0 0.00 0.00 0.00 72 1015.2
20260507095105 17 330 3.2 9.7 0.00 0.00 0.00 72 1015.2
20260507094604 17 290 3.2 8.0 0.00 0.00 0.00 72 1015.2
20260507093611 17 327 3.2 4.8 0.00 0.00 0.00 74 1015.1
20260507093103 17 306 3.2 12.9 0.00 0.00 0.00 73 1015.1
20260507092604 17 301 3.2 8.0 0.00 0.00 0.00 74 1015.1
20260507092104 17 313 3.2 8.0 0.00 0.00 0.00 73 1015.1
20260507091603 17 305 3.2 4.8 0.00 0.00 0.00 73 1015.1
20260507091104 17 301 1.6 8.0 0.00 0.00 0.00 73 1015.0
20260507090604 17 84 1.6 3.2 0.00 0.00 0.00 73 1015.0
20260507090104 17 84 3.2 3.2 0.00 0.00 0.00 74 1015.0
20260507085603 17 341 3.2 4.8 0.00 0.00 0.00 76 1015.0
20260507085109 16 314 1.6 4.8 0.00 0.00 0.00 76 1015.0
20260507084604 16 304 1.6 8.0 0.00 0.00 0.00 76 1015.0
20260507084104 16 21 3.2 4.8 0.00 0.00 0.00 77 1015.0
20260507083603 16 21 3.2 3.2 0.00 0.00 0.00 77 1015.0
20260507082604 16 40 3.2 8.0 0.00 0.00 0.00 77 1014.9
20260507082104 16 309 3.2 8.0 0.00 0.00 0.00 77 1014.8
20260507081604 16 309 3.2 8.0 0.00 0.00 0.00 77 1014.8
20260507081104 16 327 3.2 4.8 0.00 0.00 0.00 77 1014.8
20260507080104 16 282 3.2 8.0 0.00 0.00 0.00 79 1014.8
20260507075606 16 327 3.2 4.8 0.00 0.00 0.00 82 1014.7
20260507075104 15 175 3.2 8.0 0.00 0.00 0.00 81 1014.7
20260507074604 15 313 3.2 4.8 0.00 0.00 0.00 81 1014.7
20260507074103 15 313 3.2 8.0 0.00 0.00 0.00 80 1014.7
20260507073604 16 301 3.2 9.7 0.00 0.00 0.00 79 1014.7
20260507073104 16 299 3.2 8.0 0.00 0.00 0.00 79 1014.7
20260507072605 16 328 3.2 11.3 0.00 0.00 0.00 80 1014.6
20260507072105 16 305 3.2 4.8 0.00 0.00 0.00 80 1014.5
20260507071606 16 329 3.2 9.7 0.00 0.03 0.00 80 1014.5
20260507070107 15 271 3.2 3.2 0.00 0.08 0.00 83 1014.5
20260507065603 15 314 3.2 9.7 0.00 0.10 0.00 83 1014.4
20260507064606 15 247 3.2 4.8 0.00 0.13 0.00 87 1014.4
20260507064104 14 314 3.2 9.7 0.00 0.18 0.00 87 1014.2
20260507063604 14 300 3.2 4.8 0.00 0.20 0.00 87 1014.1
20260507062604 13 315 1.6 8.0 0.00 0.41 0.00 89 1014.1
20260507062104 13 289 1.6 3.2 0.00 0.46 0.00 89 1014.1
20260507061604 13 302 1.6 4.8 0.00 0.53 0.00 90 1014.1
20260507060606 13 246 3.2 8.0 0.00 0.58 0.00 92 1014.0
20260507060105 13 306 1.6 8.0 0.00 0.61 0.00 92 1014.0
20260507055604 13 184 1.6 3.2 0.00 0.66 0.00 94 1013.9
20260507054606 12 143 0.0 4.8 0.00 0.69 0.00 94 1013.9
20260507053604 12 301 0.0 3.2 0.00 0.69 0.00 95 1013.8
20260507053104 12 305 0.0 0.0 0.00 0.69 0.00 95 1013.8
20260507052105 12 305 0.0 3.2 0.00 0.69 0.00 94 1013.6
20260507051104 12 305 3.2 3.2 0.00 0.69 0.00 94 1013.4
20260507050606 12 305 3.2 3.2 0.00 0.69 0.00 94 1013.3
20260507050104 12 305 1.6 4.8 0.00 0.69 0.00 94 1013.3
20260507045604 12 305 0.0 4.8 0.00 0.69 0.00 94 1013.3
20260507044104 12 307 3.2 3.2 0.00 0.69 0.00 94 1013.2
20260507043604 12 307 3.2 4.8 0.00 0.69 0.00 94 1013.1
20260507043105 12 306 3.2 8.0 0.00 0.69 0.00 94 1013.1
20260507042604 12 316 3.2 8.0 0.00 0.69 0.00 94 1013.0
20260507042104 12 315 1.6 8.0 0.00 0.69 0.00 94 1012.9
20260507041607 11 239 1.6 8.0 0.00 0.69 0.00 94 1012.9
20260507041104 11 264 1.6 4.8 0.00 0.69 0.00 93 1012.8
20260507040104 11 287 0.0 4.8 0.00 0.69 0.00 92 1012.7
20260507035604 11 133 0.0 0.0 0.00 0.69 0.00 91 1012.6
20260507035104 11 133 0.0 0.0 0.00 0.69 0.00 91 1012.6
20260507034104 11 133 0.0 0.0 0.00 0.69 0.00 91 1012.5
20260507033607 11 133 0.0 3.2 0.00 0.69 0.00 90 1012.5
20260507033105 11 133 0.0 0.0 0.00 0.69 0.00 90 1012.5
20260507032605 11 133 0.0 3.2 0.00 0.69 0.00 90 1012.6
20260507032103 11 133 0.0 0.0 0.00 0.69 0.00 90 1012.6
20260507031604 11 133 0.0 0.0 0.00 0.69 0.00 89 1012.6
20260507031104 11 133 0.0 0.0 0.00 0.69 0.00 89 1012.6
20260507030606 11 133 0.0 1.6 0.00 0.69 0.00 89 1012.6
20260507030105 11 133 1.6 3.2 0.00 0.69 0.00 88 1012.6
20260507025104 11 133 1.6 3.2 0.00 0.71 0.00 88 1012.5
20260507024104 12 133 0.0 3.2 0.00 0.74 0.00 88 1012.4
20260507023604 12 133 0.0 3.2 0.00 0.74 0.00 88 1012.4
20260507023104 12 133 0.0 3.2 0.00 0.76 0.00 87 1012.4
20260507022104 12 133 3.2 0.0 0.00 0.86 0.00 87 1012.3
20260507021604 12 133 3.2 4.8 0.00 0.89 0.00 86 1012.3
20260507021104 12 133 4.8 8.0 0.00 0.94 0.00 86 1012.2
20260507020606 12 135 4.8 8.0 0.00 1.02 0.00 86 1012.2
20260507020104 12 125 3.2 8.0 0.00 1.04 0.00 85 1012.2
20260507015605 12 126 3.2 9.7 0.00 1.09 0.00 85 1012.1
20260507015105 12 120 3.2 8.0 0.00 1.09 0.00 85 1012.0
20260507014604 13 120 3.2 8.0 0.00 1.09 0.00 85 1012.0
20260507013604 13 127 3.2 8.0 0.00 1.09 0.00 84 1012.0
20260507013106 13 119 3.2 8.0 0.00 1.09 0.00 84 1012.0
20260507012604 13 117 3.2 8.0 0.00 1.09 0.00 84 1012.1
20260507012104 13 117 3.2 8.0 0.00 1.09 0.00 84 1012.1
20260507011603 13 118 3.2 8.0 0.00 1.09 0.00 83 1012.1
20260507005604 13 126 4.8 8.0 0.00 1.14 0.00 83 1012.3
20260507005105 13 124 4.8 8.0 0.00 1.14 0.00 83 1012.3
20260507004604 13 129 4.8 8.0 0.00 1.14 0.00 83 1012.3
20260507004105 13 128 4.8 8.0 0.00 1.14 0.00 83 1012.3
20260507003104 13 131 4.8 8.0 0.00 1.14 0.00 83 1012.3
20260507002105 13 127 4.8 8.0 0.00 1.14 0.00 82 1012.3
20260507001604 13 136 3.2 8.0 0.00 1.14 0.00 82 1012.3
20260507001104 13 118 4.8 8.0 0.00 1.14 0.00 82 1012.2
20260507000604 13 120 4.8 4.8 0.00 1.14 0.00 82 1012.2
20260506235603 13 120 4.8 8.0 0.00 1.14 0.00 80 1012.2
20260506235104 13 118 4.8 8.0 0.00 1.14 0.00 80 1012.2
20260506234604 14 119 3.2 9.7 0.00 1.14 0.00 80 1012.2
20260506233619 14 130 3.2 11.3 0.00 1.14 0.00 79 1012.1
20260506233104 14 141 3.2 8.0 0.00 1.14 0.00 79 1012.1
20260506232104 14 114 3.2 9.7 0.00 1.14 0.00 79 1011.9
20260506231105 14 130 3.2 8.0 0.00 1.14 0.00 79 1011.8
20260506230604 14 132 3.2 8.0 0.00 1.14 0.00 78 1011.8
20260506230103 14 166 4.8 8.0 0.00 1.14 0.00 78 1011.8
20260506225119 14 122 4.8 11.3 0.00 1.14 0.00 79 1011.6
20260506224105 14 116 4.8 8.0 0.00 1.14 0.00 79 1011.6
20260506223604 14 132 4.8 8.0 0.00 1.14 0.00 78 1011.6
20260506223115 14 130 4.8 9.7 0.00 1.14 0.00 78 1011.6
20260506222604 14 126 3.2 9.7 0.00 1.14 0.00 78 1011.7
20260506221604 14 124 3.2 8.0 0.00 1.14 0.00 78 1011.7
20260506221104 14 124 3.2 8.0 0.00 1.14 0.00 78 1011.6
20260506220604 14 120 3.2 8.0 0.00 1.14 0.00 77 1011.6
20260506215604 14 131 3.2 8.0 0.00 1.14 1.14 77 1011.6
20260506215104 14 141 3.2 4.8 0.00 1.14 1.14 76 1011.6
20260506214604 15 144 3.2 8.0 0.00 1.14 1.14 75 1011.6
20260506214105 15 125 3.2 8.0 0.00 1.14 1.14 75 1011.5
20260506213604 15 132 3.2 8.0 0.00 1.14 1.14 75 1011.5
20260506213105 15 126 8.0 8.0 0.00 1.14 1.14 75 1011.5
20260506212104 15 126 8.0 14.5 0.00 1.14 1.14 74 1011.2
20260506211605 15 135 8.0 16.1 0.00 1.14 1.14 74 1011.2
20260506211104 15 133 8.0 12.9 0.00 1.14 1.14 74 1011.1
20260506210105 15 126 4.8 20.9 0.00 1.14 1.14 75 1011.1
20260506205604 15 130 4.8 16.1 0.00 1.14 1.14 75 1011.1
20260506205103 15 132 6.4 12.9 0.00 1.14 1.14 75 1011.1
20260506204604 15 119 8.0 11.3 0.00 1.14 1.14 75 1011.1
20260506203605 15 135 4.8 11.3 0.00 1.14 1.14 75 1011.0
20260506203105 15 143 4.8 12.9 0.00 1.14 1.14 75 1011.0
20260506202104 15 135 4.8 14.5 0.00 1.14 1.14 75 1010.7
20260506201606 15 141 4.8 11.3 0.00 1.14 1.14 75 1010.7
20260506201104 15 138 8.0 9.7 0.00 1.14 1.14 74 1010.6
20260506200604 15 136 9.7 12.9 0.00 1.14 1.14 74 1010.5
20260506200104 15 143 8.0 12.9 0.00 1.14 1.14 74 1010.5
20260506194604 15 132 8.0 12.9 0.00 1.14 1.14 74 1010.4
20260506194104 15 129 8.0 16.1 0.00 1.14 1.14 73 1010.3
20260506193604 15 148 8.0 19.3 0.00 1.14 1.14 73 1010.2
20260506193104 15 117 4.8 12.9 0.00 1.14 1.14 73 1010.2
20260506192604 15 145 3.2 14.5 0.00 1.14 1.14 73 1010.0
20260506192104 15 124 6.4 11.3 0.00 1.14 1.14 73 1009.9
20260506190604 15 142 8.0 19.3 0.00 1.14 1.14 72 1009.5
20260506190106 15 151 8.0 20.9 0.00 1.14 1.14 72 1009.5
20260506185604 15 130 8.0 16.1 0.00 1.14 1.14 72 1009.4
20260506184605 15 146 8.0 16.1 0.00 1.14 1.14 72 1009.4
20260506183604 15 149 9.7 12.9 0.00 1.14 1.14 72 1009.2
20260506183106 15 135 8.0 12.9 0.00 1.14 1.14 72 1009.2
20260506182603 15 155 8.0 20.9 0.00 1.14 1.14 72 1009.1
20260506182104 15 141 8.0 11.3 0.00 1.14 1.14 72 1009.0
20260506181104 16 137 8.0 12.9 0.00 1.14 1.14 71 1008.8
20260506180604 16 148 8.0 14.5 0.00 1.17 1.14 71 1008.6
20260506180104 16 146 9.7 14.5 0.00 1.17 1.14 70 1008.6
20260506175604 16 142 9.7 12.9 0.00 1.17 1.14 70 1008.5
20260506175115 16 138 9.7 25.7 0.00 1.17 1.14 69 1008.4
20260506174604 16 130 9.7 19.3 0.00 1.17 1.14 69 1008.4
20260506174104 16 146 9.7 25.7 0.00 1.17 1.14 68 1008.2
20260506173606 16 147 11.3 19.3 0.00 1.17 1.14 68 1008.1
20260506173104 16 141 11.3 16.1 0.00 1.17 1.14 67 1008.1
20260506172606 16 133 11.3 24.1 0.00 1.17 1.14 67 1008.0
20260506172105 16 138 11.3 24.1 0.00 1.17 1.14 66 1007.9
20260506171104 17 129 9.7 25.7 0.00 1.17 1.14 65 1007.8